CST,Max TemperatureF,Mean TemperatureF,Min TemperatureF,Max Dew PointF,MeanDew PointF,Min DewpointF,Max Humidity, Mean Humidity, Min Humidity, Max Sea Level PressureIn, Mean Sea Level PressureIn, Min Sea Level PressureIn, Max VisibilityMiles, Mean VisibilityMiles, Min VisibilityMiles, Max Wind SpeedMPH, Mean Wind SpeedMPH, Max Gust SpeedMPH,PrecipitationIn, CloudCover, Events, WindDirDegrees
2013-11-1,73,56,39,46,39,33,96,58,26,30.15,29.93,29.82,10,10,10,18,6,24,0.00,0,,3
2013-11-2,68,52,37,38,33,28,83,52,24,30.35,30.24,30.15,10,10,8,13,5,18,0.00,0,,359
2013-11-3,64,49,34,43,36,32,92,58,34,30.17,30.05,29.92,10,10,10,23,8,30,0.00,1,,152
2013-11-4,70,60,51,56,52,44,90,76,55,30.03,29.97,29.92,10,10,9,23,12,29,0.00,5,,149
2013-11-5,71,61,51,64,60,47,100,89,75,30.01,29.92,29.85,10,9,2,23,13,33,0.18,8,Rain-Thunderstorm,156
2013-11-6,57,45,33,44,35,30,92,67,35,30.41,30.27,30.05,10,10,10,20,13,32,0.00,1,,359
2013-11-7,64,47,30,38,32,28,96,63,26,30.52,30.44,30.36,10,10,10,10,3,17,0.00,0,,200
2013-11-8,66,50,34,39,33,28,92,55,23,30.35,30.20,30.08,10,10,10,23,7,31,0.00,0,,182
2013-11-9,69,56,44,49,43,38,89,67,44,30.22,30.11,30.05,10,10,10,13,6,20,0.00,0,,134
2013-11-10,66,56,46,54,50,43,93,79,61,30.35,30.27,30.22,10,10,10,13,6,,0.00,5,,108
2013-11-11,69,58,45,57,52,39,97,80,60,30.43,30.25,30.16,10,9,4,28,5,36,0.00,7,,199
2013-11-12,45,36,21,37,18,10,78,50,24,30.79,30.69,30.45,10,10,10,32,22,43,0.00,2,,13
2013-11-13,51,32,14,24,15,9,84,55,20,30.74,30.56,30.34,10,10,10,12,3,17,0.00,0,,173
2013-11-14,54,38,23,38,29,20,88,65,35,30.32,30.12,29.96,10,10,10,20,6,26,0.01,3,Rain,146
2013-11-15,66,52,37,52,41,35,93,65,40,29.95,29.85,29.75,10,10,10,14,6,,0.00,0,,149
2013-11-16,82,70,57,58,54,52,84,61,34,29.73,29.62,29.49,10,10,10,24,12,33,0.00,2,,183
2013-11-17,77,67,54,58,41,23,90,46,20,30.08,29.80,29.57,10,10,10,17,12,24,0.00,0,,356
2013-11-18,69,58,46,34,26,21,48,33,18,30.24,30.17,30.08,10,10,10,13,10,,0.00,0,,48
2013-11-19,66,59,52,37,33,30,53,39,26,30.16,30.05,29.94,10,10,10,18,9,25,0.00,6,,139
2013-11-20,66,60,53,54,45,33,75,60,47,29.93,29.87,29.79,10,10,10,20,14,28,0.00,5,,147
2013-11-21,73,54,33,63,48,24,88,76,66,30.37,30.03,29.87,10,10,9,36,16,47,0.00,8,,126
2013-11-22,33,30,28,28,24,19,93,78,64,30.58,30.50,30.36,10,9,4,32,24,44,0.00,8,Rain-Snow,6
2013-11-23,39,34,30,25,22,19,79,61,43,30.65,30.61,30.56,10,10,10,22,17,34,0.00,7,,17
2013-11-24,34,29,24,25,21,14,88,78,51,30.70,30.57,30.37,10,6,0,21,13,25,0.00,8,Fog-Rain-Snow,31
2013-11-25,35,32,28,30,28,24,93,83,75,30.33,30.25,30.18,10,9,4,9,5,,0.00,8,Rain,103
2013-11-26,50,41,32,30,26,21,82,62,33,30.45,30.32,30.21,10,10,10,23,8,31,0.00,2,,343
2013-11-27,43,34,24,20,17,13,75,55,32,30.52,30.42,30.33,10,10,10,15,7,,0.00,0,,32
2013-11-28,55,38,21,29,24,19,89,62,24,30.43,30.36,30.30,10,10,10,9,3,,0.00,0,,151
2013-11-29,60,42,24,35,29,21,88,63,33,30.47,30.37,30.28,10,10,10,13,5,22,0.00,0,,159
2013-11-30,64,47,30,47,39,30,100,82,48,30.27,30.19,30.10,10,7,0,13,4,18,0.00,0,Fog,184